Year,Month,Day,Hour,Minute,Value (Times are PST for temperature in C)
2021,04,17,00,00,11.50
2021,04,17,00,01,11.50
2021,04,17,00,02,11.50
2021,04,17,00,03,11.50
2021,04,17,00,04,11.40
2021,04,17,00,05,11.40
2021,04,17,00,06,11.40
2021,04,17,00,07,11.40
2021,04,17,00,08,11.40
2021,04,17,00,09,11.40
2021,04,17,00,10,11.40
2021,04,17,00,11,11.40
2021,04,17,00,12,11.40
2021,04,17,00,13,11.40
2021,04,17,00,14,11.40
2021,04,17,00,15,11.40
2021,04,17,00,16,11.40
2021,04,17,00,17,11.50
2021,04,17,00,18,11.50
2021,04,17,00,19,11.50
2021,04,17,00,20,11.50
2021,04,17,00,21,11.60
2021,04,17,00,22,11.60
2021,04,17,00,23,11.60
2021,04,17,00,24,11.60
2021,04,17,00,25,11.60
2021,04,17,00,26,11.60
2021,04,17,00,27,11.50
2021,04,17,00,28,11.50
2021,04,17,00,29,11.50
2021,04,17,00,30,11.50
2021,04,17,00,31,11.50
2021,04,17,00,32,11.50
2021,04,17,00,33,11.40
2021,04,17,00,34,11.40
2021,04,17,00,35,11.40
2021,04,17,00,36,11.40
2021,04,17,00,37,11.40
2021,04,17,00,38,11.40
2021,04,17,00,39,11.40
2021,04,17,00,40,11.40
2021,04,17,00,41,11.30
2021,04,17,00,42,11.30
2021,04,17,00,43,11.30
2021,04,17,00,44,11.30
2021,04,17,00,45,11.30
2021,04,17,00,46,11.20
2021,04,17,00,47,11.20
2021,04,17,00,48,11.20
2021,04,17,00,49,11.20
2021,04,17,00,50,11.20
2021,04,17,00,51,11.20
2021,04,17,00,52,11.20
2021,04,17,00,53,11.20
2021,04,17,00,54,11.20
2021,04,17,00,55,11.20
2021,04,17,00,56,11.20
2021,04,17,00,57,11.20
2021,04,17,00,58,11.20
2021,04,17,00,59,11.20
2021,04,17,01,00,11.30
2021,04,17,01,01,11.30
2021,04,17,01,02,11.40
2021,04,17,01,03,11.40
2021,04,17,01,04,11.40
2021,04,17,01,05,11.40
2021,04,17,01,06,11.40
2021,04,17,01,07,11.50
2021,04,17,01,08,11.50
2021,04,17,01,09,11.50
2021,04,17,01,10,11.50
2021,04,17,01,11,11.60
2021,04,17,01,12,11.60
2021,04,17,01,13,11.60
2021,04,17,01,14,11.60
2021,04,17,01,15,11.60
2021,04,17,01,16,11.60
2021,04,17,01,17,11.60
2021,04,17,01,18,11.70
2021,04,17,01,19,11.70
2021,04,17,01,20,11.70
2021,04,17,01,21,11.70
2021,04,17,01,22,11.70
2021,04,17,01,23,11.80
2021,04,17,01,24,11.80
2021,04,17,01,25,11.90
2021,04,17,01,26,11.90
2021,04,17,01,27,12.00
2021,04,17,01,28,12.00
2021,04,17,01,29,12.10
2021,04,17,01,30,12.10
2021,04,17,01,31,12.10
2021,04,17,01,32,12.10
2021,04,17,01,33,12.20
2021,04,17,01,34,12.20
2021,04,17,01,35,12.20
2021,04,17,01,36,12.20
2021,04,17,01,37,12.20
2021,04,17,01,38,12.20
2021,04,17,01,39,12.20
2021,04,17,01,40,12.20
2021,04,17,01,41,12.20
2021,04,17,01,42,12.20
2021,04,17,01,43,12.20
2021,04,17,01,44,12.20
2021,04,17,01,45,12.20
2021,04,17,01,46,12.20
2021,04,17,01,47,12.20
2021,04,17,01,48,12.10
2021,04,17,01,49,12.10
2021,04,17,01,50,12.10
2021,04,17,01,51,12.10
2021,04,17,01,52,12.10
2021,04,17,01,53,12.10
2021,04,17,01,54,12.10
2021,04,17,01,55,12.10
2021,04,17,01,56,12.10
2021,04,17,01,57,12.10
2021,04,17,01,58,12.10
2021,04,17,01,59,12.10
2021,04,17,02,00,12.10
2021,04,17,02,01,12.10
2021,04,17,02,02,12.10
2021,04,17,02,03,12.20
2021,04,17,02,04,12.20
2021,04,17,02,05,12.20
2021,04,17,02,06,12.20
2021,04,17,02,07,12.20
2021,04,17,02,08,12.20
2021,04,17,02,09,12.30
2021,04,17,02,10,12.30
2021,04,17,02,11,12.30
2021,04,17,02,12,12.30
2021,04,17,02,13,12.30
2021,04,17,02,14,12.30
2021,04,17,02,15,12.30
2021,04,17,02,16,12.30
2021,04,17,02,17,12.30
2021,04,17,02,18,12.20
2021,04,17,02,19,12.20
2021,04,17,02,20,12.20
2021,04,17,02,21,12.20
2021,04,17,02,22,12.20
2021,04,17,02,23,12.20
2021,04,17,02,24,12.20
2021,04,17,02,25,12.20
2021,04,17,02,26,12.10
2021,04,17,02,27,12.20
2021,04,17,02,28,12.10
2021,04,17,02,29,12.10
2021,04,17,02,30,12.10
2021,04,17,02,31,12.10
2021,04,17,02,32,12.10
2021,04,17,02,33,12.10
2021,04,17,02,34,12.10
2021,04,17,02,35,12.10
2021,04,17,02,36,12.10
2021,04,17,02,37,12.00
2021,04,17,02,38,12.00
2021,04,17,02,39,11.90
2021,04,17,02,40,11.90
2021,04,17,02,41,11.90
2021,04,17,02,42,11.90
2021,04,17,02,43,11.80
2021,04,17,02,44,11.80
2021,04,17,02,45,11.70
2021,04,17,02,46,11.70
2021,04,17,02,47,11.60
2021,04,17,02,48,11.60
2021,04,17,02,49,11.50
2021,04,17,02,50,11.50
2021,04,17,02,51,11.40
2021,04,17,02,52,11.40
2021,04,17,02,53,11.40
2021,04,17,02,54,11.30
2021,04,17,02,55,11.30
2021,04,17,02,56,11.20
2021,04,17,02,57,11.10
2021,04,17,02,58,11.10
2021,04,17,02,59,11.10
2021,04,17,03,00,11.00
2021,04,17,03,01,11.00
2021,04,17,03,02,11.00
2021,04,17,03,03,10.90
2021,04,17,03,04,10.90
2021,04,17,03,05,10.90
2021,04,17,03,06,10.90
2021,04,17,03,07,10.90
2021,04,17,03,08,10.90
2021,04,17,03,09,10.90
2021,04,17,03,10,11.00
2021,04,17,03,11,11.00
2021,04,17,03,12,11.00
2021,04,17,03,13,11.10
2021,04,17,03,14,11.10
2021,04,17,03,15,11.10
2021,04,17,03,16,11.10
2021,04,17,03,17,11.10
2021,04,17,03,18,11.10
2021,04,17,03,19,11.00
2021,04,17,03,20,11.00
2021,04,17,03,21,10.90
2021,04,17,03,22,10.90
2021,04,17,03,23,10.90
2021,04,17,03,24,10.90
2021,04,17,03,25,10.90
2021,04,17,03,26,10.90
2021,04,17,03,27,11.00
2021,04,17,03,28,11.00
2021,04,17,03,29,11.10
2021,04,17,03,30,11.10
2021,04,17,03,31,11.10
2021,04,17,03,32,11.20
2021,04,17,03,33,11.20
2021,04,17,03,34,11.20
2021,04,17,03,35,11.20
2021,04,17,03,36,11.20
2021,04,17,03,37,11.30
2021,04,17,03,38,11.30
2021,04,17,03,39,11.30
2021,04,17,03,40,11.40
2021,04,17,03,41,11.40
2021,04,17,03,42,11.40
2021,04,17,03,43,11.50
2021,04,17,03,44,11.50
2021,04,17,03,45,11.50
2021,04,17,03,46,11.50
2021,04,17,03,47,11.50
2021,04,17,03,48,11.50
2021,04,17,03,49,11.50
2021,04,17,03,50,11.50
2021,04,17,03,51,11.50
2021,04,17,03,52,11.50
2021,04,17,03,53,11.50
2021,04,17,03,54,11.40
2021,04,17,03,55,11.40
2021,04,17,03,56,11.40
2021,04,17,03,57,11.40
2021,04,17,03,58,11.40
2021,04,17,03,59,11.30
2021,04,17,04,00,11.30
2021,04,17,04,01,11.30
2021,04,17,04,02,11.30
2021,04,17,04,03,11.30
2021,04,17,04,04,11.20
2021,04,17,04,05,11.20
2021,04,17,04,06,11.20
2021,04,17,04,07,11.20
2021,04,17,04,08,11.20
2021,04,17,04,09,11.10
2021,04,17,04,10,11.10
2021,04,17,04,11,11.10
2021,04,17,04,12,11.10
2021,04,17,04,13,11.00
2021,04,17,04,14,11.00
2021,04,17,04,15,11.00
2021,04,17,04,16,10.90
2021,04,17,04,17,10.90
2021,04,17,04,18,10.90
2021,04,17,04,19,10.90
2021,04,17,04,20,10.80
2021,04,17,04,21,10.80
2021,04,17,04,22,10.80
2021,04,17,04,23,10.80
2021,04,17,04,24,10.70
2021,04,17,04,25,10.70
2021,04,17,04,26,10.60
2021,04,17,04,27,10.60
2021,04,17,04,28,10.50
2021,04,17,04,29,10.50
2021,04,17,04,30,10.40
2021,04,17,04,31,10.40
2021,04,17,04,32,10.40
2021,04,17,04,33,10.40
2021,04,17,04,34,10.40
2021,04,17,04,35,10.20
2021,04,17,04,36,10.10
2021,04,17,04,37,10.10
2021,04,17,04,38,10.00
2021,04,17,04,39,10.00
2021,04,17,04,40,9.90
2021,04,17,04,41,9.90
2021,04,17,04,42,9.80
2021,04,17,04,43,9.80
2021,04,17,04,44,9.70
2021,04,17,04,45,9.70
2021,04,17,04,46,9.60
2021,04,17,04,47,9.60
2021,04,17,04,48,9.60
2021,04,17,04,49,9.50
2021,04,17,04,50,9.40
2021,04,17,04,51,9.40
2021,04,17,04,52,9.40
2021,04,17,04,53,9.30
2021,04,17,04,54,9.30
2021,04,17,04,55,9.20
2021,04,17,04,56,9.20
2021,04,17,04,57,9.10
2021,04,17,04,58,9.10
2021,04,17,04,59,9.10
2021,04,17,05,00,9.00
2021,04,17,05,01,9.00
2021,04,17,05,02,9.00
2021,04,17,05,03,8.90
2021,04,17,05,04,8.90
2021,04,17,05,05,8.90
2021,04,17,05,06,8.80
2021,04,17,05,07,8.80
2021,04,17,05,08,8.80
2021,04,17,05,09,8.80
2021,04,17,05,10,8.70
2021,04,17,05,11,8.70
2021,04,17,05,12,8.70
2021,04,17,05,13,8.70
2021,04,17,05,14,8.60
2021,04,17,05,15,8.60
2021,04,17,05,16,8.60
2021,04,17,05,17,8.50
2021,04,17,05,18,8.50
2021,04,17,05,19,8.40
2021,04,17,05,20,8.40
2021,04,17,05,21,8.40
2021,04,17,05,22,8.30
2021,04,17,05,23,8.30
2021,04,17,05,24,8.30
2021,04,17,05,25,8.30
2021,04,17,05,26,8.30
2021,04,17,05,27,8.30
2021,04,17,05,28,8.30
2021,04,17,05,29,8.30
2021,04,17,05,30,8.30
2021,04,17,05,31,8.40
2021,04,17,05,32,8.40
2021,04,17,05,33,8.40
2021,04,17,05,34,8.40
2021,04,17,05,35,8.40
2021,04,17,05,36,8.40
2021,04,17,05,37,8.50
2021,04,17,05,38,8.50
2021,04,17,05,39,8.50
2021,04,17,05,40,8.60
2021,04,17,05,41,8.60
2021,04,17,05,42,8.60
2021,04,17,05,43,8.70
2021,04,17,05,44,8.80
2021,04,17,05,45,8.80
2021,04,17,05,46,8.90
2021,04,17,05,47,9.00
2021,04,17,05,48,9.10
2021,04,17,05,49,9.10
2021,04,17,05,50,9.20
2021,04,17,05,51,9.30
2021,04,17,05,52,9.30
2021,04,17,05,53,9.40
2021,04,17,05,54,9.40
2021,04,17,05,55,9.50
2021,04,17,05,56,9.50
2021,04,17,05,57,9.60
2021,04,17,05,58,9.60
2021,04,17,05,59,9.60
2021,04,17,06,00,9.60
2021,04,17,06,01,9.60
2021,04,17,06,02,9.70
2021,04,17,06,03,9.70
2021,04,17,06,04,9.70
2021,04,17,06,05,9.80
2021,04,17,06,06,9.80
2021,04,17,06,07,9.80
2021,04,17,06,08,9.90
2021,04,17,06,09,9.90
2021,04,17,06,10,10.00
2021,04,17,06,11,10.00
2021,04,17,06,12,10.10
2021,04,17,06,13,10.10
2021,04,17,06,14,10.20
2021,04,17,06,15,10.30
2021,04,17,06,16,10.30
2021,04,17,06,17,10.40
2021,04,17,06,18,10.40
2021,04,17,06,19,10.50
2021,04,17,06,20,10.50
2021,04,17,06,21,10.50
2021,04,17,06,22,10.50
2021,04,17,06,23,10.50
2021,04,17,06,24,10.60
2021,04,17,06,25,10.60
2021,04,17,06,26,10.60
2021,04,17,06,27,10.60
2021,04,17,06,28,10.60
2021,04,17,06,29,10.60
2021,04,17,06,30,10.60
2021,04,17,06,31,10.60
2021,04,17,06,32,10.60
2021,04,17,06,33,10.60
2021,04,17,06,34,10.70
2021,04,17,06,35,10.60
2021,04,17,06,36,10.60
2021,04,17,06,37,10.60
2021,04,17,06,38,10.60
2021,04,17,06,39,10.60
2021,04,17,06,40,10.60
2021,04,17,06,41,10.60
2021,04,17,06,42,10.50
2021,04,17,06,43,10.50
2021,04,17,06,44,10.50
2021,04,17,06,45,10.50
2021,04,17,06,46,10.50
2021,04,17,06,47,10.50
2021,04,17,06,48,10.50
2021,04,17,06,49,10.50
2021,04,17,06,50,10.50
2021,04,17,06,51,10.50
2021,04,17,06,52,10.50
2021,04,17,06,53,10.50
2021,04,17,06,54,10.40
2021,04,17,06,55,10.50
2021,04,17,06,56,10.50
2021,04,17,06,57,10.50
2021,04,17,06,58,10.60
2021,04,17,06,59,10.60
2021,04,17,07,00,10.60
2021,04,17,07,01,10.70
2021,04,17,07,02,10.80
2021,04,17,07,03,10.80
2021,04,17,07,04,10.90
2021,04,17,07,05,11.00
2021,04,17,07,06,11.10
2021,04,17,07,07,11.20
2021,04,17,07,08,11.30
2021,04,17,07,09,11.30
2021,04,17,07,10,11.40
2021,04,17,07,11,11.50
2021,04,17,07,12,11.60
2021,04,17,07,13,11.70
2021,04,17,07,14,11.70
2021,04,17,07,15,11.80
2021,04,17,07,16,11.90
2021,04,17,07,17,12.00
2021,04,17,07,18,12.10
2021,04,17,07,19,12.10
2021,04,17,07,20,12.20
2021,04,17,07,21,12.30
2021,04,17,07,22,12.30
2021,04,17,07,23,12.40
2021,04,17,07,24,12.50
2021,04,17,07,25,12.60
2021,04,17,07,26,12.60
2021,04,17,07,27,12.70
2021,04,17,07,28,12.80
2021,04,17,07,29,12.80
2021,04,17,07,30,12.90
2021,04,17,07,31,12.90
2021,04,17,07,32,13.00
2021,04,17,07,33,13.00
2021,04,17,07,34,13.10
2021,04,17,07,35,13.20
2021,04,17,07,36,13.20
2021,04,17,07,37,13.30
2021,04,17,07,38,13.40
2021,04,17,07,39,13.40
2021,04,17,07,40,13.50
2021,04,17,07,41,13.60
2021,04,17,07,42,13.60
2021,04,17,07,43,13.70
2021,04,17,07,44,13.80
2021,04,17,07,45,13.80
2021,04,17,07,46,13.90
2021,04,17,07,47,13.90
2021,04,17,07,48,14.00
2021,04,17,07,49,14.10
2021,04,17,07,50,14.10
2021,04,17,07,51,14.20
2021,04,17,07,52,14.20
2021,04,17,07,53,14.20
2021,04,17,07,54,14.30
2021,04,17,07,55,14.30
2021,04,17,07,56,14.40
2021,04,17,07,57,14.50
2021,04,17,07,58,14.50
2021,04,17,07,59,14.60
2021,04,17,08,00,14.70
2021,04,17,08,01,14.70
2021,04,17,08,02,14.80
2021,04,17,08,03,14.80
2021,04,17,08,04,14.80
2021,04,17,08,05,14.90
2021,04,17,08,06,14.90
2021,04,17,08,07,15.00
2021,04,17,08,08,15.00
2021,04,17,08,09,15.10
2021,04,17,08,10,15.20
2021,04,17,08,11,15.20
2021,04,17,08,12,15.30
2021,04,17,08,13,15.30
2021,04,17,08,14,15.40
2021,04,17,08,15,15.40
2021,04,17,08,16,15.50
2021,04,17,08,17,15.60
2021,04,17,08,18,15.60
2021,04,17,08,19,15.70
2021,04,17,08,20,15.70
2021,04,17,08,21,15.80
2021,04,17,08,22,15.80
2021,04,17,08,23,15.80
2021,04,17,08,24,15.80
2021,04,17,08,25,15.80
2021,04,17,08,26,15.90
2021,04,17,08,27,15.90
2021,04,17,08,28,15.90
2021,04,17,08,29,15.90
2021,04,17,08,30,16.00
2021,04,17,08,31,16.00
2021,04,17,08,32,16.00
2021,04,17,08,33,16.10
2021,04,17,08,34,16.10
2021,04,17,08,35,16.20
2021,04,17,08,36,16.20
2021,04,17,08,37,16.30
2021,04,17,08,38,16.30
2021,04,17,08,39,16.30
2021,04,17,08,40,16.30
2021,04,17,08,41,16.20
2021,04,17,08,42,16.20
2021,04,17,08,43,16.20
2021,04,17,08,44,16.20
2021,04,17,08,45,16.20
2021,04,17,08,46,16.20
2021,04,17,08,47,16.20
2021,04,17,08,48,16.20
2021,04,17,08,49,16.30
2021,04,17,08,50,16.30
2021,04,17,08,51,16.30
2021,04,17,08,52,16.30
2021,04,17,08,53,16.30
2021,04,17,08,54,16.30
2021,04,17,08,55,16.30
2021,04,17,08,56,16.30
2021,04,17,08,57,16.30
2021,04,17,08,58,16.30
2021,04,17,08,59,16.30
2021,04,17,09,00,16.30
2021,04,17,09,01,16.30
2021,04,17,09,02,16.30
2021,04,17,09,03,16.40
2021,04,17,09,04,16.40
2021,04,17,09,05,16.50
2021,04,17,09,06,16.60
2021,04,17,09,07,16.60
2021,04,17,09,08,16.60
2021,04,17,09,09,16.60
2021,04,17,09,10,16.60
2021,04,17,09,11,16.70
2021,04,17,09,12,16.70
2021,04,17,09,13,16.80
2021,04,17,09,14,16.80
2021,04,17,09,15,16.90
2021,04,17,09,16,16.90
2021,04,17,09,17,16.90
2021,04,17,09,18,17.00
2021,04,17,09,19,17.00
2021,04,17,09,20,17.10
2021,04,17,09,21,17.10
2021,04,17,09,22,17.20
2021,04,17,09,23,17.20
2021,04,17,09,24,17.30
2021,04,17,09,25,17.30
2021,04,17,09,26,17.30
2021,04,17,09,27,17.40
2021,04,17,09,28,17.40
2021,04,17,09,29,17.50
2021,04,17,09,30,17.60
2021,04,17,09,31,17.60
2021,04,17,09,32,17.60
2021,04,17,09,33,17.70
2021,04,17,09,34,17.70
2021,04,17,09,35,17.80
2021,04,17,09,36,17.80
2021,04,17,09,37,17.90
2021,04,17,09,38,18.00
2021,04,17,09,39,18.00
2021,04,17,09,40,18.10
2021,04,17,09,41,18.20
2021,04,17,09,42,18.20
2021,04,17,09,43,18.20
2021,04,17,09,44,18.20
2021,04,17,09,45,18.20
2021,04,17,09,46,18.30
2021,04,17,09,47,18.30
2021,04,17,09,48,18.30
2021,04,17,09,49,18.30
2021,04,17,09,50,18.40
2021,04,17,09,51,18.40
2021,04,17,09,52,18.50
2021,04,17,09,53,18.50
2021,04,17,09,54,18.60
2021,04,17,09,55,18.60
2021,04,17,09,56,18.70
2021,04,17,09,57,18.80
2021,04,17,09,58,18.80
2021,04,17,09,59,18.90
2021,04,17,10,00,18.90
2021,04,17,10,01,19.00
2021,04,17,10,02,19.10
2021,04,17,10,03,19.10
2021,04,17,10,04,19.00
2021,04,17,10,05,19.00
2021,04,17,10,06,19.00
2021,04,17,10,07,19.00
2021,04,17,10,08,18.90
2021,04,17,10,09,18.90
2021,04,17,10,10,18.90
2021,04,17,10,11,18.80
2021,04,17,10,12,18.80
2021,04,17,10,13,18.80
2021,04,17,10,14,18.90
2021,04,17,10,15,18.90
2021,04,17,10,16,18.90
2021,04,17,10,17,19.00
2021,04,17,10,18,19.00
2021,04,17,10,19,19.10
2021,04,17,10,20,19.10
2021,04,17,10,21,19.10
2021,04,17,10,22,19.10
2021,04,17,10,23,19.10
2021,04,17,10,24,19.10
2021,04,17,10,25,19.10
2021,04,17,10,26,19.10
2021,04,17,10,27,19.10
2021,04,17,10,28,19.10
2021,04,17,10,29,19.10
2021,04,17,10,30,19.10
2021,04,17,10,31,19.10
2021,04,17,10,32,19.10
2021,04,17,10,33,19.10
2021,04,17,10,34,19.00
2021,04,17,10,35,19.00
2021,04,17,10,36,19.00
2021,04,17,10,37,19.00
2021,04,17,10,38,19.00
2021,04,17,10,39,19.00
2021,04,17,10,40,19.00
2021,04,17,10,41,19.00
2021,04,17,10,42,19.00
2021,04,17,10,43,19.00
2021,04,17,10,44,19.10
2021,04,17,10,45,19.10
2021,04,17,10,46,19.10
2021,04,17,10,47,19.20
2021,04,17,10,48,19.20
2021,04,17,10,49,19.20
2021,04,17,10,50,19.20
2021,04,17,10,51,19.20
2021,04,17,10,52,19.20
2021,04,17,10,53,19.30
2021,04,17,10,54,19.30
2021,04,17,10,55,19.30
2021,04,17,10,56,19.40
2021,04,17,10,57,19.50
2021,04,17,10,58,19.50
2021,04,17,10,59,19.50
2021,04,17,11,00,19.50
2021,04,17,11,01,19.50
2021,04,17,11,02,19.50
2021,04,17,11,03,19.50
2021,04,17,11,04,19.60
2021,04,17,11,05,19.60
2021,04,17,11,06,19.60
2021,04,17,11,07,19.70
2021,04,17,11,08,19.70
2021,04,17,11,09,19.70
2021,04,17,11,10,19.70
2021,04,17,11,11,19.70
2021,04,17,11,12,19.80
2021,04,17,11,13,19.70
2021,04,17,11,14,19.70
2021,04,17,11,15,19.70
2021,04,17,11,16,19.70
2021,04,17,11,17,19.70
2021,04,17,11,18,19.70
2021,04,17,11,19,19.80
2021,04,17,11,20,19.80
2021,04,17,11,21,19.90
2021,04,17,11,22,19.90
2021,04,17,11,23,20.00
2021,04,17,11,24,20.10
2021,04,17,11,25,20.10
2021,04,17,11,26,20.20
2021,04,17,11,27,20.30
2021,04,17,11,28,20.30
2021,04,17,11,29,20.40
2021,04,17,11,30,20.40
2021,04,17,11,31,20.40
2021,04,17,11,32,20.40
2021,04,17,11,33,20.40
2021,04,17,11,34,20.40
2021,04,17,11,35,20.40
2021,04,17,11,36,20.40
2021,04,17,11,37,20.50
2021,04,17,11,38,20.50
2021,04,17,11,39,20.60
2021,04,17,11,40,20.60
2021,04,17,11,41,20.60
2021,04,17,11,42,20.50
2021,04,17,11,43,20.40
2021,04,17,11,44,20.40
2021,04,17,11,45,20.20
2021,04,17,11,46,20.20
2021,04,17,11,47,20.10
2021,04,17,11,48,20.10
2021,04,17,11,49,20.00
2021,04,17,11,50,20.00
2021,04,17,11,51,19.90
2021,04,17,11,52,19.80
2021,04,17,11,53,19.70
2021,04,17,11,54,19.60
2021,04,17,11,55,19.40
2021,04,17,11,56,19.30
2021,04,17,11,57,19.20
2021,04,17,11,58,19.20
2021,04,17,11,59,19.10
2021,04,17,12,00,19.10
2021,04,17,12,01,19.00
2021,04,17,12,02,18.90
2021,04,17,12,03,18.90
2021,04,17,12,04,18.90
2021,04,17,12,05,19.00
2021,04,17,12,06,19.00
2021,04,17,12,07,18.90
2021,04,17,12,08,18.90
2021,04,17,12,09,18.90
2021,04,17,12,10,18.80
2021,04,17,12,11,18.70
2021,04,17,12,12,18.70
2021,04,17,12,13,18.80
2021,04,17,12,14,18.80
2021,04,17,12,15,18.90
2021,04,17,12,16,18.90
2021,04,17,12,17,19.00
2021,04,17,12,18,19.00
2021,04,17,12,19,19.00
2021,04,17,12,20,19.00
2021,04,17,12,21,19.00
2021,04,17,12,22,18.90
2021,04,17,12,23,18.80
2021,04,17,12,24,18.80
2021,04,17,12,25,18.80
2021,04,17,12,26,18.70
2021,04,17,12,27,18.70
2021,04,17,12,28,18.70
2021,04,17,12,29,18.70
2021,04,17,12,30,18.70
2021,04,17,12,31,18.70
2021,04,17,12,32,18.70
2021,04,17,12,33,18.70
2021,04,17,12,34,18.70
2021,04,17,12,35,18.70
2021,04,17,12,36,18.80
2021,04,17,12,37,18.80
2021,04,17,12,38,18.80
2021,04,17,12,39,18.80
2021,04,17,12,40,18.90
2021,04,17,12,41,19.00
2021,04,17,12,42,19.10
2021,04,17,12,43,19.20
2021,04,17,12,44,19.20
2021,04,17,12,45,19.30
2021,04,17,12,46,19.30
2021,04,17,12,47,19.30
2021,04,17,12,48,19.40
2021,04,17,12,49,19.40
2021,04,17,12,50,19.50
2021,04,17,12,51,19.60
2021,04,17,12,52,19.60
2021,04,17,12,53,19.50
2021,04,17,12,54,19.50
2021,04,17,12,55,19.60
2021,04,17,12,56,19.60
2021,04,17,12,57,19.60
2021,04,17,12,58,19.70
2021,04,17,12,59,19.70
2021,04,17,13,00,19.80
2021,04,17,13,01,19.80
2021,04,17,13,02,19.90
2021,04,17,13,03,19.80
2021,04,17,13,04,19.80
2021,04,17,13,05,19.80
2021,04,17,13,06,19.70
2021,04,17,13,07,19.60
2021,04,17,13,08,19.50
2021,04,17,13,09,19.30
2021,04,17,13,10,19.20
2021,04,17,13,11,19.20
2021,04,17,13,12,19.10
2021,04,17,13,13,19.10
2021,04,17,13,14,19.10
2021,04,17,13,15,19.00
2021,04,17,13,16,18.80
2021,04,17,13,17,18.70
2021,04,17,13,18,18.60
2021,04,17,13,19,18.50
2021,04,17,13,20,18.50
2021,04,17,13,21,18.50
2021,04,17,13,22,18.50
2021,04,17,13,23,18.60
2021,04,17,13,24,18.70
2021,04,17,13,25,18.70
2021,04,17,13,26,18.80
2021,04,17,13,27,18.90
2021,04,17,13,28,18.90
2021,04,17,13,29,19.00
2021,04,17,13,30,19.10
2021,04,17,13,31,19.10
2021,04,17,13,32,19.10
2021,04,17,13,33,19.10
2021,04,17,13,34,19.10
2021,04,17,13,35,19.10
2021,04,17,13,36,19.10
2021,04,17,13,37,19.10
2021,04,17,13,38,19.20
2021,04,17,13,39,19.20
2021,04,17,13,40,19.30
2021,04,17,13,41,19.30
2021,04,17,13,42,19.40
2021,04,17,13,43,19.50
2021,04,17,13,44,19.70
2021,04,17,13,45,19.80
2021,04,17,13,46,20.00
2021,04,17,13,47,20.10
2021,04,17,13,48,20.20
2021,04,17,13,49,20.30
2021,04,17,13,50,20.40
2021,04,17,13,51,20.50
2021,04,17,13,52,20.50
2021,04,17,13,53,20.40
2021,04,17,13,54,20.40
2021,04,17,13,55,20.40
2021,04,17,13,56,20.50
2021,04,17,13,57,20.60
2021,04,17,13,58,20.80
2021,04,17,13,59,20.90
2021,04,17,14,00,21.20
2021,04,17,14,01,21.40
2021,04,17,14,02,21.50
2021,04,17,14,03,21.60
2021,04,17,14,04,21.70
2021,04,17,14,05,21.60
2021,04,17,14,06,21.50
2021,04,17,14,07,21.40
2021,04,17,14,08,21.30
2021,04,17,14,09,21.20
2021,04,17,14,10,21.20
2021,04,17,14,11,21.10
2021,04,17,14,12,21.20
2021,04,17,14,13,21.30
2021,04,17,14,14,21.30
2021,04,17,14,15,21.50
2021,04,17,14,16,21.70
2021,04,17,14,17,21.90
2021,04,17,14,18,22.00
2021,04,17,14,19,22.10
2021,04,17,14,20,22.00
2021,04,17,14,21,21.90
2021,04,17,14,22,21.90
2021,04,17,14,23,21.90
2021,04,17,14,24,21.90
2021,04,17,14,25,21.90
2021,04,17,14,26,22.00
2021,04,17,14,27,21.90
2021,04,17,14,28,22.00
2021,04,17,14,29,22.10
2021,04,17,14,30,22.20
2021,04,17,14,31,22.20
2021,04,17,14,32,22.20
2021,04,17,14,33,22.30
2021,04,17,14,34,22.20
2021,04,17,14,35,22.20
2021,04,17,14,36,22.10
2021,04,17,14,37,22.10
2021,04,17,14,38,22.10
2021,04,17,14,39,22.00
2021,04,17,14,40,21.90
2021,04,17,14,41,21.90
2021,04,17,14,42,21.80
2021,04,17,14,43,21.80
2021,04,17,14,44,21.80
2021,04,17,14,45,21.80
2021,04,17,14,46,21.90
2021,04,17,14,47,22.00
2021,04,17,14,48,22.10
2021,04,17,14,49,22.20
2021,04,17,14,50,22.30
2021,04,17,14,51,22.50
2021,04,17,14,52,22.60
2021,04,17,14,53,22.80
2021,04,17,14,54,23.00
2021,04,17,14,55,23.10
2021,04,17,14,56,23.20
2021,04,17,14,57,23.30
2021,04,17,14,58,23.30
2021,04,17,14,59,23.40
2021,04,17,15,00,23.60
2021,04,17,15,01,23.70
2021,04,17,15,02,23.80
2021,04,17,15,03,24.00
2021,04,17,15,04,24.10
2021,04,17,15,05,24.20
2021,04,17,15,06,24.20
2021,04,17,15,07,24.20
2021,04,17,15,08,24.20
2021,04,17,15,09,24.20
2021,04,17,15,10,24.20
2021,04,17,15,11,24.20
2021,04,17,15,12,24.30
2021,04,17,15,13,24.30
2021,04,17,15,14,24.40
2021,04,17,15,15,24.40
2021,04,17,15,16,24.40
2021,04,17,15,17,24.50
2021,04,17,15,18,24.60
2021,04,17,15,19,24.60
2021,04,17,15,20,24.70
2021,04,17,15,21,24.80
2021,04,17,15,22,24.90
2021,04,17,15,23,24.90
2021,04,17,15,24,25.00
2021,04,17,15,25,25.00
2021,04,17,15,26,25.10
2021,04,17,15,27,25.20
2021,04,17,15,28,25.20
2021,04,17,15,29,25.20
2021,04,17,15,30,25.30
2021,04,17,15,31,25.30
2021,04,17,15,32,25.40
2021,04,17,15,33,25.30
2021,04,17,15,34,25.30
2021,04,17,15,35,25.40
2021,04,17,15,36,25.40
2021,04,17,15,37,25.40
2021,04,17,15,38,25.40
2021,04,17,15,39,25.30
2021,04,17,15,40,25.20
2021,04,17,15,41,25.10
2021,04,17,15,42,24.90
2021,04,17,15,43,24.80
2021,04,17,15,44,24.70
2021,04,17,15,45,24.70
2021,04,17,15,46,24.60
2021,04,17,15,47,24.60
2021,04,17,15,48,24.60
2021,04,17,15,49,24.70
2021,04,17,15,50,24.70
2021,04,17,15,51,24.70
2021,04,17,15,52,24.70
2021,04,17,15,53,24.70
2021,04,17,15,54,24.70
2021,04,17,15,55,24.70
2021,04,17,15,56,24.70
2021,04,17,15,57,24.70
2021,04,17,15,58,24.60
2021,04,17,15,59,24.60
2021,04,17,16,00,24.60
2021,04,17,16,01,24.60
2021,04,17,16,02,24.60
2021,04,17,16,03,24.60
2021,04,17,16,04,24.60
2021,04,17,16,05,24.50
2021,04,17,16,06,24.60
2021,04,17,16,07,24.60
2021,04,17,16,08,24.60
2021,04,17,16,09,24.50
2021,04,17,16,10,24.50
2021,04,17,16,11,24.50
2021,04,17,16,12,24.40
2021,04,17,16,13,24.50
2021,04,17,16,14,24.50
2021,04,17,16,15,24.60
2021,04,17,16,16,24.60
2021,04,17,16,17,24.60
2021,04,17,16,18,24.70
2021,04,17,16,19,24.80
2021,04,17,16,20,24.80
2021,04,17,16,21,24.80
2021,04,17,16,22,24.80
2021,04,17,16,23,24.90
2021,04,17,16,24,24.90
2021,04,17,16,25,24.90
2021,04,17,16,26,25.00
2021,04,17,16,27,25.10
2021,04,17,16,28,25.20
2021,04,17,16,29,25.30
2021,04,17,16,30,25.30
2021,04,17,16,31,25.40
2021,04,17,16,32,25.40
2021,04,17,16,33,25.50
2021,04,17,16,34,25.60
2021,04,17,16,35,25.60
2021,04,17,16,36,25.70
2021,04,17,16,37,25.70
2021,04,17,16,38,25.70
2021,04,17,16,39,25.80
2021,04,17,16,40,25.80
2021,04,17,16,41,25.80
2021,04,17,16,42,25.90
2021,04,17,16,43,25.90
2021,04,17,16,44,25.90
2021,04,17,16,45,26.00
2021,04,17,16,46,26.00
2021,04,17,16,47,26.10
2021,04,17,16,48,26.20
2021,04,17,16,49,26.20
2021,04,17,16,50,26.10
2021,04,17,16,51,26.10
2021,04,17,16,52,26.10
2021,04,17,16,53,26.10
2021,04,17,16,54,26.10
2021,04,17,16,55,26.10
2021,04,17,16,56,26.10
2021,04,17,16,57,26.10
2021,04,17,16,58,26.10
2021,04,17,16,59,26.10
2021,04,17,17,00,26.10
2021,04,17,17,01,26.10
2021,04,17,17,02,26.00
2021,04,17,17,03,25.90
2021,04,17,17,04,25.70
2021,04,17,17,05,25.50
2021,04,17,17,06,25.20
2021,04,17,17,07,24.90
2021,04,17,17,08,24.60
2021,04,17,17,09,24.40
2021,04,17,17,10,24.20
2021,04,17,17,11,23.90
2021,04,17,17,12,23.60
2021,04,17,17,13,23.40
2021,04,17,17,14,23.10
2021,04,17,17,15,22.90
2021,04,17,17,16,22.60
2021,04,17,17,17,22.30
2021,04,17,17,18,22.00
2021,04,17,17,19,21.70
2021,04,17,17,20,21.50
2021,04,17,17,21,21.40
2021,04,17,17,22,21.30
2021,04,17,17,23,21.20